Regional Weather Roundup
Issued by NWS Little Rock, AR

Home | Current Version | Previous Version | Graphics & Text | Print | Product List | Glossary On
Versions: 1 2 3 4 5 6 7 8 9 10 11 12 13 14 15 16 17 18 19 20 21 22 23 24 25 26 27 28 29 30 31 32 33 34 35 36 37 38 39 40 41 42 43 44 45 46 47 48 49 50
000
ASUS44 KLZK 271905
RWRLZK

WEATHER ROUNDUP FOR ARKANSAS
NATIONAL WEATHER SERVICE LITTLE ROCK AR
200 PM CDT SUN MAY 27 2018

NOTE: "FAIR" INDICATES FEW OR NO CLOUDS BELOW 12,000 FEET WITH NO
SIGNIFICANT WEATHER AND/OR OBSTRUCTIONS TO VISIBILITY.

ARZ001-003-010-029-272000-
NORTHWEST ARKANSAS

CITY           SKY/WX    TMP DP  RH WIND       PRES   REMARKS
FAYETTEVILLE   SUNNY     88  64  44 E6        29.92F HX  89
FORT SMITH     MOSUNNY   89  68  49 E10       29.87F HX  93
HARRISON       SUNNY     87  67  51 SE9       29.94F HX  90
BENTONVILLE    SUNNY     89  62  40 E6        29.94F HX  89
ROGERS         SUNNY     86  67  52 SE7       29.94F HX  89
SILOAM SPGS    MOSUNNY   86  69  56 VRB3      29.93F HX  90
HIGHFILL       SUNNY     88  64  44 VRB3      29.93F HX  89
SPRINGDALE     SUNNY     88  66  48 SE7       29.94F HX  90
$$

ARZ004-005-016-272000-
NORTH CENTRAL ARKANSAS

CITY           SKY/WX    TMP DP  RH WIND       PRES   REMARKS
BATESVILLE     MOSUNNY   88  69  53 E8        29.91F HX  92
FLIPPIN        MOSUNNY   89  71  55 VRB6      29.91F HX  95
MTN HOME       MOSUNNY   87  69  54 VRB5      29.91F HX  91
$$

ARZ040-041-272000-
WEST CENTRAL ARKANSAS

CITY           SKY/WX    TMP DP  RH WIND       PRES   REMARKS
MENA           MOSUNNY   88  68  51 E9        29.91F HX  91
MOUNT IDA      MOSUNNY   88  71  57 VRB3      29.88F HX  94
$$

ARZ009-017-025-026-028-272000-
NORTHEAST ARKANSAS

CITY           SKY/WX    TMP DP  RH WIND       PRES   REMARKS
CORNING        MOCLDY    90  73  58 SW7       29.90S HX  98
JONESBORO      FAIR      90  73  57 VRB3      29.90F HX  98
NEWPORT        FAIR      87  70  56 CALM      29.90F HX  92
WALNUT RIDGE     N/A     89  73  59 W6        29.90F HX  97
BLYTHEVILLE    PTSUNNY   89  69  51 VRB3      29.90F HX  93
$$

ARZ022-023-033-042-044-272000-
CENTRAL ARKANSAS

CITY           SKY/WX    TMP DP  RH WIND       PRES   REMARKS
LITTLE ROCK    PTSUNNY   86  68  54 SE6       29.89F HX  89
N LITTLE ROCK    N/A     87  73  62 E6        29.85F HX  93
JACKSONVILLE   SUNNY     89  70  53 E3        29.89F HX  94
CONWAY         CLEAR     88  68  51 VRB6G13   29.88  HX  91
SEARCY         FAIR      88  73  61 S6        29.90F HX  95
HOT SPRINGS    MOSUNNY   86  70  58 VRB5      29.90F HX  90
RUSSELLVILLE   SUNNY     88  70  55 MISG      29.88F HX  93
CLINTON        FAIR      88  70  55 SE6       29.91S HX  92
$$

ARZ036-272000-
EAST ARKANSAS

CITY           SKY/WX    TMP DP  RH WIND       PRES   REMARKS
WEST MEMPHIS   FAIR      89  71  55 NE5       29.88F HX  95
$$

ARZ050-053-066-070-073-272000-
SOUTHWEST ARKANSAS

CITY           SKY/WX    TMP DP  RH WIND       PRES   REMARKS
ARKADELPHIA    FAIR      89  71  55 VRB5      29.88F HX  95
CAMDEN         FAIR      90  66  45 E8        29.87F HX  92
TEXARKANA      MOSUNNY   86  72  62 VRB6      29.87F HX  92
EL DORADO      FAIR      87  71  58 NE9       29.88F HX  93
DE QUEEN       MOSUNNY   89  71  55 SE9       29.85F HX  95
$$

ARZ056-057-069-272000-
SOUTHEAST ARKANSAS

CITY           SKY/WX    TMP DP  RH WIND       PRES   REMARKS
PINE BLUFF     FAIR      87  69  54 E8        29.89F HX  91
STUTTGART      FAIR      87  68  52 E5        29.90F HX  90

$$





USA.gov is the U.S. government's official web portal to all federal, state and local government web resources and services.